Goetzville, MI

12:52 PM EST on February 08, 2016 (GMT -0500)
Sterling Bay, Lake Huron | | Change Station
CLOSE
Current Station
Personal Weather Station
Location: Hilton Beach, ONTARIO
Elevation: 620 ft
Nearby Weather Stations

Elev 620 ft 46.11 °N, 83.89 °W | Updated 13 minutes ago

Mostly Cloudy
Mostly Cloudy
34.7 °F
Feels Like 31 °F
N
4.2
Wind Variable Wind from NE

Today
High -- | Low -- °F
--% Chance of Precip.
Yesterday
High -- | Low -- °F
Precip. -- in
Pressure 29.60 in
Visibility 4.0 miles
Clouds Overcast 200 ft
Windchill 31 °F
Dew Point 33 °F
Humidity 94%
Rainfall 0.02 in
Snow Depth Not available.
7:50 AM 5:51 PM
New Moon, 0% visible
METAR KDRM 081735Z AUTO 08003KT 4SM BR OVC002 01/01 A2960 RMK AO2 T00130013
Pressure 29.60 in
Visibility 4.0 miles
Clouds Overcast 200 ft
Windchill 31 °F
Dew Point 33 °F
Humidity 94%
Rainfall 0.02 in
Snow Depth Not available.
7:50 AM 5:51 PM
New Moon, 0% visible
METAR KDRM 081735Z AUTO 08003KT 4SM BR OVC002 01/01 A2960 RMK AO2 T00130013

10-Day Weather Forecast

Almanac

Astronomy

Feb. 08, 2016 Rise Set
Actual Time
Civil Twilight
Nautical Twilight
Astronomical Twilight
Moon
Length of Visible Light
Length of Day
Tomorrow will be .
, % of the Moon is Illuminated

Today's Extremes

State Highs State Lows

Community

WunderPhotos

Upload Photos

1,891,476 photos uploaded!

WunderBlog® & News

Nearby

Air Quality

  Air Quality AQ Index Pollutant
Not available.

Snow Depth

Station Depth Elevation

Earthquake Activity

City Distance Mag. Time & Date
Minimum magnitude displayed is 2.5.

Coastal Water Temperatures

Place Temperature

Stations

Nearby Weather Stations

Station Location Temp. Windchill Dew Point Humidity Wind Precip. Elev Updated Type
                   

Watches & Warnings

There are currently no watches in effect.